Home   Weather   Reykjavik   Past weeks
Flag for Iceland

Past Weather in Reykjavik, Iceland — Yesterday and Last 2 Weeks

Now
32 °F

Scattered showers. Passing clouds.


Feels Like: 26 °F
Forecast: N/A
Wind: 7 mph from Southeast

Location: Reykjavik Airport

Current Time: Jan 19, 2019 at 7:45:55 pm

Latest Report: Jan 19, 2019 at 7:00 pm


Visibility: N/A

Pressure: 29.47 "Hg

Humidity: 87%

Dew Point: 28 °F

Location of ReykjavikLocation

Past Weather in Reykjavik — Graph

°F

Reykjavik Temperature Yesterday

Maximum temperature yesterday: 39 °F (at 12:00 pm)
Minimum temperature yesterday: 36 °F (at 12:00 am)
Average temperature yesterday: 38 °F

High & Low Weather Summary for the Past Weeks

 TemperatureHumidityPressure
High48 °F (Jan 4, 7:00 pm)93% (Jan 4, 6:00 pm)30.39 "Hg (Jan 4, 6:00 pm)
Low19 °F (Jan 16, 7:00 pm)48% (Jan 7, 10:00 am)29.15 "Hg (Jan 14, 3:00 pm)
Average36 °F79%29.79 "Hg
* Reported Jan 4 6:00 pm — Jan 19 6:00 pm, Reykjavik. Weather by CustomWeather, © 2019

Note: Actual official high and low records may vary slightly from our data, if they occured in-between our weather recording intervals... More about our weather records

Advertising

Reykjavik Weather History for the Previous 24 Hours

Scroll right to see more
 ConditionsComfort  
Time TempWeatherWind HumidityBarometerVisibility
6:00 pm
Sat, Jan 19
32 °FScattered showers. Passing clouds.7 mph87%29.47 "HgN/A
5:00 pm32 °FPassing clouds.7 mph87%29.47 "HgN/A
4:36 pm32 °FPassing clouds.8 mph93%29.50 "HgN/A
4:27 pm32 °FSnow flurries. Partly sunny.13 mph93%29.50 "Hg1 mi
4:00 pm34 °FScattered showers. Partly sunny.7 mph81%29.47 "HgN/A
3:00 pm32 °FScattered showers. Overcast.7 mph93%29.47 "HgN/A
2:00 pm32 °FPartly sunny.7 mph93%29.50 "HgN/A
1:00 pm32 °FLight snow. Mostly cloudy.3 mph93%29.50 "Hg4 mi
12:00 pm32 °FSnow. Dense fog.5 mph93%29.50 "Hg1 mi
11:00 am32 °FSnow. Dense fog.8 mph93%29.47 "Hg1 mi
10:23 am32 °FLight rain. Dense fog.12 mph93%29.47 "Hg1 mi
10:00 am37 °FRain. Overcast.25 mph81%29.45 "Hg4 mi
9:00 am41 °FLight rain. Mostly cloudy.30 mph81%29.42 "Hg6 mi
8:00 am41 °FLight rain. Mostly cloudy.24 mph81%29.45 "Hg5 mi
7:00 am41 °FLight rain. Mostly cloudy.28 mph76%29.47 "HgN/A
6:00 am41 °FLight rain. Mostly cloudy.28 mph76%29.50 "HgN/A
5:00 am39 °FMostly cloudy.18 mph81%29.56 "HgN/A
4:00 am41 °FSprinkles. Partly cloudy.20 mph76%29.56 "HgN/A
3:00 am39 °FSprinkles. Passing clouds.18 mph81%29.59 "HgN/A
2:00 am39 °FSprinkles. Overcast.21 mph81%29.62 "HgN/A
1:00 am39 °FPartly cloudy.16 mph81%29.62 "HgN/A
12:00 am39 °FScattered showers. Mostly cloudy.15 mph81%29.65 "HgN/A
11:00 pm
Fri, Jan 18
39 °FSprinkles. Mostly cloudy.15 mph81%29.65 "HgN/A
10:00 pm39 °FScattered showers. Overcast.17 mph81%29.65 "HgN/A
9:00 pm39 °FSprinkles. Mostly cloudy.18 mph81%29.68 "HgN/A
8:00 pm39 °FPassing clouds.18 mph75%29.68 "HgN/A
7:00 pm39 °FLight rain. Mostly cloudy.18 mph75%29.68 "HgN/A
Weather by CustomWeather, © 2019

See weather overview